Regional Weather Roundup
Issued by NWS Spokane, WA

Home | Current Version | Previous Version | Text Only | Print | Product List | Glossary On
Versions: 1 2 3 4 5 6 7 8 9 10 11 12 13 14 15 16 17 18 19 20 21 22 23 24 25 26 27 28 29 30 31 32 33 34 35 36 37 38 39 40 41 42 43 44 45 46 47 48 49 50
384
NZUS01 KOTX 271925
RWROTX

Eastern Washington/Northern Idaho Roundup
National Weather Service, Spokane WA
1100 AM PST MON FEB 27 2017

Note: "fair" indicated few or no clouds below 12,000 feet with no
significant weather and/or obstructions to visibility.

...Northeast Washington and Northern Idaho Panhandle...

CITY           SKY/WX    TMP DP  RH WIND       PRES   REMARKS
Spokane Intl   LGT SNOW  28  25  88 SW14      29.65S FOG     WCI  17
Spokane Downto LGT SNOW  31  28  89 SW9       29.68S FOG     WCI  23
Coeur d Alene  LGT SNOW  34  28  80 SW6       29.66S VSB 1   WCI  29
Deer Park      LGT SNOW  28  24  85 S9        29.66S FOG     WCI  19
Sandpoint      LGT SNOW  30  28  93 SW3       29.64S VSB 3/4
Bonners Ferry  LGT SNOW  25  23  93 CALM      29.62F

...Southeast Washington and southern Idaho Panhandle...

CITY           SKY/WX    TMP DP  RH WIND       PRES   REMARKS
Walla Walla    CLOUDY    37  32  82 S13       29.75S
Pullman/Moscow LGT SNOW  31  28  89 SW15      29.69S FOG     WCI  20
Lewiston       CLOUDY    34  31  88 N3        29.73S
Lowell           N/A     36  31  82 CALM      29.75R
Grangeville    FAIR      32  23  69 SW10      29.66S WCI  24

...Columbia Basin...

CITY           SKY/WX    TMP DP  RH WIND       PRES   REMARKS
Ephrata        CLOUDY    32  20  61 E6        29.69F WCI  26
Moses Lake     CLOUDY    33  27  78 CALM      29.71F
Pasco          PTSUNNY   44  30  57 SW15      29.75F
Richland       MOCLDY    44  32  61 SW13      29.75S
Hermiston      MOSUNNY   44  31  60 W14       29.75F
Pendleton      MOSUNNY   35  29  78 SW16      29.74S WCI  25

...East Slopes Cascades...

CITY           SKY/WX    TMP DP  RH WIND       PRES   REMARKS
The Dalles     CLOUDY    41  31  67 NW3       29.78F
Yakima         CLOUDY    33  30  88 CALM      29.72S
Ellensburg     CLOUDY    31  25  78 CALM      29.68S
Stampede Pass  SNOW     N/A N/A N/A VRB3      29.55F VSB 1/2
Wenatchee      CLOUDY    28  27  96 CALM      29.69S
Omak           CLOUDY    30  16  56 NE3       29.70S
Chelan           N/A     29  18  64 MISG        N/A
Sunnyside      CLOUDY    37  30  75 CALM      29.73S

...Southern British Columbia...

CITY           SKY/WX    TMP DP  RH WIND       PRES   REMARKS
Penticton      CLOUDY    27  16  63 N6        29.71F WCI  20
Castlegar      PTSUNNY   28  16  59 N5        29.67F WCI  23
Cranbrook      MOSUNNY   19  10  68 CALM      29.60F
Osoyoos          N/A     28  16  59 NW2         N/A
Creston          N/A     28  21  74 W3          N/A

...Western Montana...

CITY           SKY/WX    TMP DP  RH WIND       PRES   REMARKS
Kalispell      CLOUDY    22  13  68 CALM      29.62S
Libby            N/A     27  18  69 CALM      29.60F
Missoula       CLOUDY    27  21  80 NW5       29.61S WCI  21

...Neighboring Cities...

CITY           SKY/WX    TMP DP  RH WIND       PRES   REMARKS
Seattle        CLOUDY    38  36  92 S14       29.71S
Portland       LGT RAIN  40  36  86 SW9       29.82S
Boise          CLOUDY    35  22  58 N7        29.77R WCI  29
Great Falls    SUNNY     17  10  74 SE6       29.57F WCI   9
Calgary        MOSUNNY   12   0  57 S8        29.53S WCI   1



USA.gov is the U.S. government's official web portal to all federal, state and local government web resources and services.